Location: Eastlake (historical)
(39.0077°N, 122.6678°W)
Time: 18:13:01
(UTC+00:00)

GPS 2-04 Rocket1 - Pass Details

Date: 25 November 2020
Orbit: 417 x 544 km, 35.6° (Epoch: 23 January)

Event Time Altitude Azimuth Distance (km) Brightness Sun altitude
Exits shadow 13:58:50 12° 242° (WSW) 1,572 4.7 -12.8°
Maximum altitude 14:02:13 44° 171° (S) 675 3.5 -12.2°
Drops below altitude 10° 14:05:44 10° 99° (E) 1,611 6.7 -11.5°
Sets 14:07:55 0° 92° (E) 2,462 7.8 -11.1°
